Tracking 19638 objects as of 21-Apr-2019
HD Live streaming from Space Station
objects crossing your sky now

CBERS 1 DEB

Track CBERS 1 DEB now!
10-day predictions


NORAD ID: 31581
Int'l Code: 1999-057PC
Perigee: 520.6 km
Apogee: 528.2 km
Inclination: 98.2 °
Period: 95.0 minutes
Semi major axis: 6895 km
RCS: 0.0119 m2 (small)
Launch date: October 14, 1999
Source: China/Brazil (CHBZ)
Launch site: Taiyaun Space Center, China (TSC)

Note: This is SATELLITE DEBRIS
aabbcc
Your satellite tracking list
Your tracking list is empty




NASA's NSSDC Master Catalog

Two Line Element Set (TLE):
1 31581U 99057PC  19111.21328973  .00013419  00000-0  69701-3 0  9990
2 31581  98.2143 208.8978 0005522 150.1705 209.9841 15.16232282643448
Source of the keplerian elements: AFSPC